Regional Weather Roundup
Issued by NWS

Home | Current Version | Previous Version | Graphics & Text | Print | Product List | Glossary On
Versions: 1 2 3 4 5 6 7 8 9 10 11 12 13 14 15 16 17 18 19 20 21 22 23 24 25 26 27 28 29 30 31 32 33 34 35 36 37 38 39 40 41 42 43 44 45 46 47 48 49 50
000
ASUS43 KTOP 012108
RWRKS

WEATHER ROUNDUP FOR KANSAS
NATIONAL WEATHER SERVICE GOODLAND KS
300 PM CST SUN MAR 01 2015

NOTE:  "FAIR" INDICATES FEW OR NO CLOUDS BELOW 12,000 FEET WITH NO
SIGNIFICANT WEATHER AND/OR OBSTRUCTIONS TO VISIBILITY.

KSZ001>006-013>018-027>032-041>047-012200-
NORTHWEST KANSAS

CITY           SKY/WX    TMP DP  RH WIND       PRES   REMARKS
GOODLAND       SUNNY     32  17  54 NE12      30.26F WCI  23
HAYS           CLOUDY    30  16  55 N7        30.35S
HILL CITY      PTSUNNY   34  20  56 VRB5      30.34S
RUSSELL        PTSUNNY   33  19  56 N7        30.34F
$$

KSZ061>065-074>080-084>089-012200-
SOUTHWEST KANSAS

CITY           SKY/WX    TMP DP  RH WIND       PRES   REMARKS
DODGE CITY     CLOUDY    30  21  69 N10       30.33S WCI  21
ELKHART          N/A     29  21  72 N5          N/A
GARDEN CITY    CLOUDY    27  20  75 NE3       30.31S
GREAT BEND     CLOUDY    30  18  59 N6        30.36S
LIBERAL        CLOUDY    28  21  74 N9        30.32S
PRATT          PTSUNNY   34  25  69 N9        30.36R
$$

KSZ066>073-081>083-090>101-012200-
SOUTHEAST KANSAS

CITY           SKY/WX    TMP DP  RH WIND       PRES   REMARKS
CHANUTE        PTSUNNY   32  23  69 NW6       30.39S
COFFEYVILLE    PTSUNNY   34  23  64 N7        30.39F
HUTCHINSON     PTSUNNY   34  20  56 N7        30.37S
MEDICINE LODGE   N/A     34  21  59 N6        30.37S
NEWTON         PTSUNNY   28  18  64 N8        30.38F
PARSONS        CLOUDY    34  23  64 N7        30.40R
WICHITA INTL   PTSUNNY   31  19  61 N8        30.38F
WICHITA JABRA  MOSUNNY   30  20  66 N8        30.37S
WICHITA MCCONL PTSUNNY   31  20  65 N6        30.37S
WINFIELD       CLOUDY    31  24  75 N10       30.39S WCI  22
$$

KSZ007>012-019>026-033>040-048>060-102>105-012200-
NORTHEAST KANSAS

CITY           SKY/WX    TMP DP  RH WIND       PRES   REMARKS
CONCORDIA      MOSUNNY   35  20  54 NW7       30.36F
EMPORIA        PTSUNNY   31  21  66 N7        30.37F
LAWRENCE       CLOUDY    34  22  61 NW7       30.39S
MANHATTAN      PTSUNNY   33  20  58 VRB3      30.39S
MARYSVILLE     MOSUNNY   34  23  64 NW7       30.36F
OLATHE IND     CLOUDY    31  22  69 W8        30.38S
OLATHE EXE     CLOUDY    31  20  63 VRB7      30.36S
SALINA         PTSUNNY   34  19  54 N12       30.38F WCI  25
TOPEKA BILLARD CLOUDY    33  22  63 NW8       30.39F
TOPEKA FORBES  PTSUNNY   34  21  59 NW9       30.38S
$$


USA.gov is the U.S. government's official web portal to all federal, state and local government web resources and services.